Dewpoint
2 2 1 -0 -0 1 0 -1 0 -1 -2 -1 -1 -1 -1 -1 -1 -4 -5 -2 1 1 0 -0 0 2 3 4 5 6 6 5 7 7 7 6 7 7 4 4 2 -2 -1 -1
-1 0 -2 -1 -2 -2 -1 0 -0 -1 -1 -1 -2 -2 -5 -5 -4 -4 -4 1 1 0 0 1 2 3 4 6 6 6 6 6 6 8 7 7 7 7 7 4 4 -0 1 3
-0 -2 -3 -3 -2 -1 -0 -1 0 1 0 -2 -3 -2 -4 -5 -6 -2 1 1 1 2 3 3 4 4 5 6 7 7 7 7 6 6 8 7 7 8 8 6 5 3 1 4
-1 -2 -2 -2 -1 -2 -0 -3 -0 1 2 2 -3 2 -2 -2 0 1 2 1 1 3 2 1 5 6 7 7 7 7 7 7 7 7 8 8 7 7 7 7 6 6 2 3
-5 -1 -2 -2 -2 -3 -1 -2 0 1 2 1 0 -0 -2 1 2 2 1 1 0 1 1 1 5 6 7 7 7 7 7 7 7 7 8 8 7 7 7 7 7 6 3 3
-2 -3 -4 -3 -3 -3 -3 -0 1 1 1 2 0 -1 -1 2 2 1 0 0 -0 0 1 2 4 5 7 7 7 7 7 7 7 7 7 7 7 7 7 7 7 6 5 2
-3 -2 -4 -3 -3 -2 -2 1 2 1 3 2 0 1 -0 -2 -0 -0 -0 -1 -0 0 0 2 3 4 6 6 7 7 7 7 7 7 8 8 8 7 7 7 7 7 5 3
-1 -4 -3 -4 -3 -2 -2 2 4 3 2 2 0 4 1 -2 -1 -1 -1 -1 0 0 0 2 2 4 6 7 7 6 8 8 8 9 8 7 8 8 7 7 7 7 6 5
-1 -1 -5 -5 -5 -3 0 2 1 3 0 4 2 -1 -2 -0 -0 -1 -1 -0 -0 -0 -0 1 1 2 5 7 7 7 7 7 8 8 8 9 9 8 8 7 7 7 6 6
-4 -1 -5 -4 -5 -4 -2 -2 0 0 3 4 1 1 1 1 1 -0 -1 -1 -1 -1 -0 -0 1 2 3 5 6 7 6 7 7 7 8 9 9 9 8 8 7 7 7 6
-4 -3 -5 -4 -3 -1 -1 -0 1 -1 2 2 1 -1 -3 -1 -1 -0 -1 -1 -1 -1 -0 -0 -0 1 1 2 5 6 6 7 7 7 8 8 8 9 9 8 8 7 7 6
-5 -3 -1 -3 -4 -6 -3 -1 0 1 -1 1 -1 1 -4 -2 -2 -1 -1 -1 -1 -1 -1 -0 -1 -1 -1 -1 2 4 6 6 7 8 8 8 8 7 9 9 9 8 7 6
-4 -3 -3 -9 -7 -5 -5 -5 -2 -2 -2 0 1 -1 -4 -2 -1 -1 -1 -2 -2 -1 -2 -1 -0 -1 -1 -1 -1 0 4 6 7 7 8 8 8 8 8 8 8 8 8 7
-5 -3 -4 -8 -8 -4 -2 -3 -2 -3 -4 -4 -1 -3 -3 -2 -1 -2 -2 -1 -2 -2 -1 -1 -1 -1 -1 -1 -1 -1 -1 3 6 6 8 8 7 8 8 8 8 8 9 8
-5 -4 -2 -3 -4 -4 -3 -4 -4 -2 -4 -4 -9 -2 -6 -5 -5 -8 -9 -8 -8 -9 -2 -1 -1 -0 -1 -1 -1 -1 -1 -2 0 5 7 7 8 8 8 8 8 8 8 8
-4 -5 -4 -3 -4 -4 -3 -4 -4 -4 -4 -4 -4 -5 -8 -8 -8 -8 -7 -6 -5 -6 -2 -2 -1 -1 -1 -1 -1 -2 -1 -1 -1 -1 4 6 7 7 7 8 8 8 7 8
-4 -3 -4 -3 -5 -2 -3 -3 -4 -5 -5 -5 -3 -6 -9 -8 -7 -7 -7 -8 -7 -6 -5 -3 -2 -2 -2 -2 -1 -2 -2 -2 -1 -1 -1 1 4 6 6 7 7 8 8 8
-4 -4 -3 -1 -2 -3 -6 -7 -6 -5 -6 -6 -6 -7 -7 -7 -8 -8 -8 -8 -8 -8 -6 -3 -2 -2 -3 -3 -2 -2 -2 -2 -2 -2 -1 -1 -1 -0 1 4 5 7 7 7
-5 -3 -1 -1 -0 -4 -8 -5 -5 -6 -11 -8 -7 -8 -9 -8 -8 -9 -13 -11 -11 -10 -7 -5 -3 -2 -2 -3 -3 -2 -2 -2 -2 -2 -2 -2 -1 -1 -1 -2 -1 1 3 5
-3 -4 -2 -1 1 -4 -11 -15 -9 -10 -13 -15 -8 -9 -9 -8 -8 -9 -14 -14 -9 -9 -10 -5 -4 -2 -1 -3 -3 -3 -2 -2 -2 -2 -2 -2 -2 -2 -2 -1 -1 -1 -1 -1
-1 -1 -0 -0 1 -2 -7 -11 -8 -15 -13 -13 -10 -11 -9 -7 -10 -14 -13 -13 -11 -11 -13 -9 -4 -3 -3 -2 -3 -4 -3 -2 -1 -2 -2 -3 -3 -3 -4 -3 -3 -3 -3 -3
-1 -0 -0 -1 0 -1 -8 -6 -14 -14 -14 -14 -13 -14 -11 -12 -13 -13 -13 -12 -11 -9 -9 -10 -6 -5 -3 -2 -4 -5 -5 -3 -1 -1 -2 -2 -3 -3 -3 -4 -4 -4 -5 -5
-4 -5 -3 -3 -3 -8 -7 -10 -11 -12 -11 -12 -11 -11 -11 -12 -13 -13 -13 -13 -13 -11 -8 -7 -7 -7 -5 -3 -5 -5 -8 -5 -2 -1 -1 -2 -2 -3 -3 -3 -4 -4 -5 -5
-7 -8 -6 -6 -7 -7 -9 -9 -9 -10 -8 -10 -10 -10 -10 -9 -10 -9 -9 -9 -10 -10 -10 -8 -6 -5 -5 -6 -7 -8 -6 -6 -4 -2 -1 -1 -2 -2 -2 -3 -3 -4 -4 -4
-6 -8 -7 -7 -8 -9 -9 -10 -9 -8 -9 -9 -7 -2 -6 -9 -9 -9 -9 -10 -11 -11 -10 -10 -8 -6 -7 -6 -6 -6 -6 -5 -5 -4 -2 -1 -1 -1 -2 -3 -3 -3 -3 -3
-4 -2 -2 -2 -4 -5 -5 -5 -4 -4 -5 -5 -6 -5 -5 -3 -6 -7 -8 -9 -10 -10 -10 -10 -10 -8 -8 -6 -5 -5 -5 -5 -5 -4 -3 -2 -1 -1 -2 -2 -3 -3 -3 -3
Wind_Speed
2 2 4 7 5 6 4 5 7 7 8 6 9 15 12 19 22 20 21 12 12 13 17 23 28 26 27 26 31 33 31 27 24 24 28 32 36 36 43 42 41 42 42 42
4 4 7 6 5 4 2 5 7 7 4 4 7 17 14 10 13 23 15 11 7 13 19 24 24 24 24 26 31 33 27 26 26 28 28 32 33 36 37 41 41 41 41 41
4 6 8 3 4 5 3 5 5 6 7 5 5 10 8 7 15 13 13 7 5 10 15 19 22 21 23 27 27 28 24 23 26 29 30 29 31 34 34 40 41 43 41 41
5 3 1 3 4 1 5 3 5 8 6 4 5 6 6 6 1 6 12 5 4 8 12 16 18 21 22 23 25 26 26 27 29 26 27 27 31 34 35 36 35 37 41 39
6 3 3 3 3 0 7 4 5 4 3 4 4 2 7 2 3 6 8 4 4 7 11 15 14 18 19 22 26 27 26 22 22 19 22 26 29 31 31 31 33 36 37 40
7 4 3 5 3 4 6 5 5 0 1 2 5 5 6 3 6 4 4 6 5 7 10 13 13 16 18 22 28 26 23 21 17 17 21 26 29 29 30 31 33 32 36 42
6 3 2 3 3 5 6 4 4 4 2 5 0 4 10 6 6 7 8 7 5 6 9 11 13 17 19 23 27 29 23 21 16 17 20 25 30 30 31 32 32 33 33 38
3 7 2 2 3 3 2 0 2 5 3 5 3 6 6 5 9 9 6 5 5 6 8 9 12 15 17 20 23 25 27 23 18 18 20 24 28 33 32 32 33 32 34 33
5 6 5 3 2 5 1 1 1 3 2 4 4 7 7 3 3 4 7 8 9 6 7 9 11 12 14 17 21 22 25 28 23 21 20 20 21 26 30 29 30 31 34 35
2 6 3 4 2 2 2 1 4 2 4 5 5 6 5 5 6 6 6 12 11 8 8 10 11 11 12 14 17 20 22 26 26 21 18 19 18 21 26 27 28 31 30 33
4 4 6 2 4 5 1 1 1 3 3 3 3 7 6 7 8 9 10 15 11 10 9 10 11 12 13 14 15 18 20 23 26 20 20 19 18 16 19 24 27 27 30 31
3 3 5 10 4 4 3 6 5 4 4 3 3 7 4 5 8 12 14 15 14 13 11 10 11 12 12 14 14 16 17 20 23 23 16 17 14 15 18 21 20 21 27 31
5 2 5 8 5 3 4 4 4 4 2 6 4 6 2 3 5 11 13 15 17 16 14 13 12 11 11 12 13 14 15 16 18 22 22 16 10 7 10 19 21 19 19 25
6 3 7 7 7 3 4 5 6 5 3 3 9 10 6 6 7 10 17 19 19 21 18 16 14 13 11 11 12 13 14 15 16 16 21 24 22 9 4 2 11 16 13 16
3 6 5 13 19 15 18 16 12 11 10 7 2 8 11 8 9 17 26 28 27 27 22 18 16 14 13 11 11 11 12 13 15 14 16 19 21 24 19 5 8 14 15 17
3 4 2 7 9 9 10 16 19 19 20 21 22 28 24 32 23 20 20 14 16 18 21 19 17 16 14 13 11 10 10 10 11 13 14 13 14 16 18 22 23 23 17 15
5 2 3 6 5 8 7 9 14 6 6 17 11 14 5 6 7 14 17 15 18 20 22 20 18 16 16 14 12 11 9 9 9 9 9 11 13 13 14 14 15 20 24 25
6 3 2 5 7 3 4 3 9 13 7 17 9 16 10 12 17 19 21 26 28 24 22 21 19 17 15 14 12 11 10 9 8 7 6 6 7 10 11 10 12 13 14 15
5 4 3 3 3 9 3 3 6 7 8 13 21 19 18 13 14 27 16 21 21 20 21 21 20 18 16 15 13 11 10 9 6 4 4 3 4 5 6 8 10 13 13 13
4 4 3 2 3 5 3 1 3 2 6 5 16 13 7 6 1 5 7 8 12 13 16 21 20 20 19 17 15 14 12 11 8 4 3 0 2 3 3 5 5 8 9 12
3 3 7 6 5 10 10 4 7 1 5 3 9 17 8 6 11 9 8 11 13 13 13 16 20 21 19 17 18 17 15 14 11 8 5 3 2 3 3 3 5 5 6 7
10 10 6 5 5 10 11 6 6 6 3 7 9 14 19 23 27 25 20 20 19 18 16 18 20 21 20 20 20 19 18 14 14 12 9 7 5 5 5 5 4 5 4 3
3 7 7 12 9 4 18 15 18 19 16 24 22 29 29 29 30 29 27 25 25 22 22 21 23 22 21 22 22 21 17 17 17 16 13 10 9 8 7 6 6 4 2 1
5 12 4 3 8 20 33 38 38 42 39 40 39 33 35 37 33 33 33 33 30 27 24 25 26 27 27 25 24 23 19 18 19 19 17 15 13 11 9 7 6 5 4 4
5 7 5 16 20 26 36 34 38 44 41 37 32 30 31 32 31 32 35 33 31 29 28 25 27 31 29 27 27 23 22 22 22 20 19 19 17 16 14 11 9 7 7 6
8 16 13 18 29 25 37 38 38 39 36 32 37 40 43 42 42 41 38 35 34 32 29 29 25 27 30 29 28 26 25 25 23 23 22 22 21 20 18 15 14 12 11 10
Wind_Direction
244 74 274 266 243 245 246 256 267 266 264 280 265 274 268 270 270 272 281 247 249 285 292 304 307 300 304 301 304 307 298 288 277 267 268 270 265 262 247 241 235 234 236 238
20 258 257 257 268 304 313 291 292 285 290 301 281 282 273 249 250 252 244 218 277 306 307 312 315 307 306 305 308 307 299 288 273 265 266 268 269 264 258 246 240 232 234 238
164 249 306 294 304 306 274 263 274 272 310 264 264 282 255 269 243 223 181 188 294 320 319 320 316 313 311 308 310 314 312 297 282 262 258 261 263 261 257 244 241 232 232 235
246 272 89 328 283 4 301 256 284 296 350 282 49 292 281 274 146 154 172 182 327 319 317 321 323 322 323 326 323 315 309 302 296 263 254 261 262 259 251 245 246 239 232 236
261 259 270 301 227 229 251 290 280 259 262 311 311 113 275 115 156 188 200 194 297 307 310 323 328 339 337 331 326 323 314 302 297 264 253 261 262 259 256 252 249 241 234 232
242 268 244 218 246 216 279 311 310 216 135 306 233 157 281 216 206 188 189 220 261 299 313 324 327 340 338 337 338 336 328 314 285 267 254 253 259 256 252 253 249 244 233 230
321 256 270 204 330 3 35 47 334 346 349 233 213 150 253 248 222 182 194 224 254 293 314 324 324 335 339 348 350 348 341 332 308 279 270 262 257 255 255 252 247 239 236 233
14 332 210 177 190 221 258 47 137 301 304 287 309 233 251 260 197 181 186 221 240 285 308 316 328 342 348 350 348 352 353 342 332 313 282 265 259 253 250 254 249 242 236 235
355 276 317 230 193 129 349 55 299 258 197 278 266 295 311 74 131 193 212 232 250 274 308 321 331 339 350 348 348 352 357 354 328 322 314 291 273 254 252 250 248 247 239 238
187 300 265 308 27 250 184 207 47 342 328 298 288 284 245 242 230 233 246 241 263 281 304 323 330 333 343 338 339 344 359 359 357 334 317 307 294 263 254 250 250 246 242 239
164 134 288 338 208 190 116 289 158 130 188 204 300 277 216 236 207 212 232 245 258 275 290 308 323 334 336 339 342 344 356 3 11 3 353 313 295 283 248 246 248 248 245 243
216 166 262 230 266 300 203 202 160 133 254 212 167 272 270 253 210 210 238 253 262 265 274 289 304 317 333 342 345 347 356 7 12 16 356 331 315 280 261 249 245 248 245 243
170 266 324 340 6 356 244 220 151 112 59 222 157 259 299 252 257 240 247 257 266 269 267 269 280 296 315 330 347 353 359 6 12 18 22 13 7 337 291 248 237 247 257 247
157 192 201 214 227 168 220 215 192 147 139 210 232 277 237 280 254 266 268 267 271 270 265 266 269 281 294 315 331 345 359 3 11 18 29 36 34 28 2 223 240 260 248 252
158 225 213 252 261 260 257 244 223 209 211 206 291 233 267 244 248 265 278 281 276 264 250 257 263 271 283 297 309 325 343 358 7 13 29 40 40 46 55 7 264 261 265 236
190 277 8 281 258 241 251 242 235 234 240 246 258 277 278 274 266 267 267 267 267 254 240 255 256 264 273 283 295 312 327 342 358 5 20 34 42 47 51 67 68 78 95 122
170 183 21 266 337 309 293 225 196 196 209 220 223 233 261 272 270 259 257 262 259 259 258 249 253 257 267 270 277 290 309 327 334 356 13 29 39 54 57 58 65 73 73 85
147 139 182 281 335 315 248 180 174 202 225 208 248 253 231 239 270 280 264 272 277 263 259 253 253 253 256 258 264 275 289 300 312 328 356 28 39 44 54 55 62 71 79 72
168 134 275 278 274 295 276 185 159 185 277 211 220 250 259 267 289 288 297 269 266 269 263 259 259 259 256 249 251 255 263 274 282 297 328 17 56 64 61 58 62 68 77 89
101 94 147 325 276 267 264 178 175 174 293 203 196 241 245 157 237 259 319 276 265 273 260 246 246 246 250 250 247 246 249 258 266 265 268 327 89 85 94 86 75 80 83 89
149 187 217 225 267 278 261 195 141 264 253 323 214 242 208 191 226 294 291 293 277 277 271 250 242 246 255 253 249 246 244 248 254 251 242 241 185 159 144 122 107 93 82 85
173 165 195 179 209 271 170 110 181 224 268 285 278 287 254 256 260 282 279 279 277 279 271 256 247 249 250 251 251 248 246 243 246 248 238 228 221 194 166 162 155 145 133 115
224 203 186 194 211 263 194 225 253 260 277 283 280 288 285 280 276 278 277 279 283 277 275 266 256 253 248 250 250 247 250 240 240 240 239 231 221 212 201 190 184 189 197 215
231 206 242 265 208 246 260 265 269 276 273 279 292 295 294 285 285 284 279 283 284 277 272 269 258 252 251 247 247 251 246 241 237 236 233 232 229 224 217 211 213 219 210 203
198 147 231 264 271 274 265 263 270 278 277 281 286 298 300 297 291 294 292 287 279 280 275 265 261 257 259 256 252 248 243 240 238 235 233 233 230 227 226 226 228 230 234 236
210 245 238 257 269 269 274 274 281 280 277 284 283 286 291 293 289 292 290 285 281 277 275 267 258 261 261 258 253 249 242 237 238 235 231 229 230 230 230 230 232 237 241 243
Height
1525 1530 1531 1526 1523 1521 1519 1520 1519 1511 1504 1502 1498 1492 1488 1484 1481 1481 1480 1481 1481 1480 1479 1476 1474 1472 1467 1464 1461 1457 1452 1451 1450 1448 1448 1447 1446 1447 1449 1451 1456 1459 1464 1468
1528 1530 1521 1520 1519 1518 1517 1519 1516 1506 1500 1501 1496 1487 1480 1477 1474 1473 1475 1477 1477 1476 1473 1470 1468 1466 1462 1458 1454 1449 1445 1442 1442 1440 1440 1439 1438 1438 1440 1443 1446 1450 1453 1460
1530 1520 1518 1518 1518 1517 1515 1515 1513 1511 1502 1495 1493 1485 1476 1466 1465 1467 1470 1472 1473 1471 1469 1467 1464 1460 1456 1452 1447 1443 1438 1436 1434 1433 1432 1431 1431 1431 1431 1432 1436 1440 1445 1451
1524 1516 1515 1517 1517 1515 1518 1508 1508 1507 1510 1512 1496 1505 1479 1467 1463 1463 1466 1468 1468 1468 1466 1465 1460 1456 1452 1447 1442 1437 1432 1428 1424 1423 1424 1424 1424 1422 1423 1425 1430 1433 1437 1443
1522 1517 1515 1515 1513 1513 1514 1508 1508 1504 1508 1508 1500 1513 1477 1465 1464 1464 1464 1464 1464 1464 1463 1460 1457 1453 1449 1445 1440 1433 1427 1422 1418 1416 1418 1417 1416 1416 1418 1420 1422 1426 1429 1435
1520 1514 1513 1510 1508 1507 1506 1507 1506 1504 1509 1511 1496 1499 1480 1469 1461 1461 1461 1461 1461 1461 1459 1457 1454 1450 1446 1443 1435 1428 1422 1417 1414 1413 1412 1411 1410 1410 1411 1413 1415 1417 1421 1427
1522 1512 1508 1508 1509 1507 1508 1514 1526 1524 1516 1515 1486 1495 1469 1458 1456 1455 1457 1457 1458 1458 1457 1454 1452 1448 1443 1437 1431 1424 1418 1412 1409 1407 1405 1405 1404 1404 1405 1406 1409 1411 1415 1418
1543 1529 1509 1507 1508 1510 1510 1507 1520 1525 1537 1516 1488 1482 1465 1450 1449 1452 1453 1455 1456 1456 1455 1452 1449 1445 1441 1435 1430 1422 1415 1409 1405 1402 1400 1399 1398 1398 1399 1400 1402 1405 1408 1412
1545 1527 1509 1507 1507 1510 1509 1520 1509 1513 1519 1507 1492 1471 1453 1452 1452 1453 1453 1454 1453 1453 1451 1448 1446 1443 1438 1434 1429 1423 1416 1409 1403 1398 1394 1392 1391 1391 1391 1393 1396 1399 1403 1407
1533 1541 1514 1508 1507 1508 1508 1510 1524 1527 1527 1514 1493 1483 1472 1457 1456 1455 1454 1452 1450 1450 1448 1446 1444 1441 1437 1433 1429 1424 1418 1410 1401 1394 1391 1387 1385 1384 1385 1388 1390 1393 1397 1401
1529 1537 1521 1511 1511 1509 1513 1515 1513 1522 1518 1531 1531 1484 1457 1452 1451 1451 1449 1448 1448 1448 1447 1444 1442 1439 1436 1432 1428 1423 1418 1411 1402 1394 1389 1385 1382 1380 1379 1381 1385 1388 1391 1395
1528 1533 1536 1513 1505 1505 1505 1506 1509 1524 1524 1520 1529 1490 1448 1446 1445 1446 1446 1446 1445 1444 1443 1442 1440 1438 1435 1431 1428 1423 1418 1413 1407 1399 1391 1385 1380 1377 1376 1378 1379 1382 1385 1388
1525 1537 1545 1508 1510 1505 1506 1503 1505 1516 1520 1518 1519 1480 1445 1445 1445 1444 1443 1442 1441 1441 1440 1439 1437 1436 1433 1431 1427 1423 1418 1414 1409 1402 1394 1387 1381 1377 1373 1373 1375 1378 1380 1381
1523 1532 1527 1521 1500 1503 1505 1499 1502 1507 1536 1516 1488 1463 1447 1444 1443 1441 1439 1438 1437 1436 1436 1435 1434 1432 1431 1429 1426 1422 1418 1414 1409 1404 1398 1391 1384 1379 1376 1374 1375 1375 1375 1375
1525 1533 1521 1508 1499 1499 1495 1493 1493 1504 1492 1498 1461 1468 1443 1442 1439 1435 1434 1432 1430 1429 1430 1431 1430 1429 1428 1426 1424 1421 1418 1414 1409 1406 1401 1395 1391 1385 1379 1375 1373 1371 1370 1371
1523 1528 1528 1512 1489 1492 1490 1483 1482 1481 1479 1475 1465 1454 1435 1429 1430 1430 1426 1425 1423 1422 1424 1426 1426 1424 1423 1422 1421 1419 1416 1413 1411 1407 1403 1399 1394 1390 1387 1382 1379 1375 1370 1367
1523 1527 1528 1506 1490 1490 1485 1462 1465 1462 1458 1457 1464 1435 1430 1428 1427 1423 1421 1421 1419 1418 1419 1418 1419 1419 1419 1418 1417 1416 1414 1412 1410 1408 1405 1402 1398 1394 1391 1389 1386 1382 1379 1377
1519 1525 1526 1514 1500 1471 1439 1440 1442 1445 1441 1439 1435 1425 1421 1420 1421 1419 1417 1413 1412 1412 1413 1414 1414 1413 1414 1413 1413 1412 1411 1410 1408 1407 1405 1403 1400 1398 1395 1393 1391 1388 1385 1383
1510 1516 1521 1519 1511 1467 1429 1441 1444 1442 1422 1420 1422 1416 1415 1418 1418 1408 1407 1406 1405 1404 1406 1407 1409 1410 1410 1409 1409 1409 1408 1407 1406 1405 1403 1401 1400 1399 1397 1395 1394 1392 1390 1388
1509 1511 1522 1519 1513 1468 1431 1432 1434 1437 1435 1410 1413 1412 1411 1416 1420 1408 1402 1403 1402 1401 1400 1401 1403 1404 1405 1406 1406 1406 1405 1404 1403 1403 1402 1401 1400 1399 1398 1396 1395 1394 1393 1392
1509 1511 1511 1514 1508 1469 1434 1433 1434 1438 1429 1412 1411 1407 1410 1411 1402 1399 1398 1399 1401 1400 1398 1398 1398 1398 1400 1402 1402 1402 1402 1402 1402 1401 1400 1400 1399 1398 1398 1396 1395 1395 1395 1395
1485 1494 1500 1500 1500 1470 1426 1432 1435 1415 1408 1410 1409 1407 1404 1401 1399 1397 1395 1394 1394 1395 1395 1394 1394 1394 1396 1397 1397 1398 1398 1400 1399 1399 1399 1398 1398 1398 1397 1397 1396 1396 1395 1395
1472 1457 1463 1462 1444 1420 1418 1410 1408 1408 1405 1405 1403 1401 1401 1396 1393 1392 1389 1389 1388 1387 1390 1390 1389 1389 1390 1391 1392 1393 1394 1396 1396 1396 1396 1397 1397 1397 1397 1397 1397 1397 1397 1396
1451 1447 1451 1443 1414 1417 1410 1406 1406 1403 1400 1397 1396 1393 1392 1388 1385 1384 1384 1382 1381 1380 1379 1382 1384 1383 1384 1383 1384 1386 1389 1391 1392 1393 1393 1394 1395 1395 1396 1396 1396 1396 1396 1396
1441 1442 1440 1423 1411 1411 1399 1401 1399 1395 1393 1391 1389 1387 1385 1383 1379 1378 1376 1373 1372 1372 1372 1371 1373 1375 1376 1379 1379 1380 1382 1385 1386 1388 1389 1390 1391 1392 1393 1394 1394 1395 1395 1396
1437 1429 1429 1412 1402 1404 1381 1390 1391 1387 1384 1384 1380 1378 1376 1375 1371 1369 1365 1365 1365 1363 1363 1363 1361 1363 1366 1369 1372 1374 1375 1376 1379 1381 1383 1385 1387 1388 1389 1390 1391 1392 1393 1393